Location: Pasarilla del Rebollar
(40.6790°N, 5.0062°W)
Time: 12:09:36
(UTC+00:00)

Cosmos 2278 - Pass Details

Date: 22 April 2026
Orbit: 836 x 852 km, 71.1° (Epoch: 16 May)

Event Time Altitude Azimuth Distance (km) Brightness Sun altitude
Rises 02:44:08 0° 335° (NNW) 3,425 7.2 -27.4°
Reaches altitude 10° 02:46:35 10° 335° (NNW) 2,487 6.4 -27.0°
Maximum altitude 02:52:19 84° 248° (WSW) 862 3.5 -26.3°
Enters shadow 02:53:00 70° 177° (S) 906 3.6 -26.2°
